[[{"header":{"parameterUnit":"m.s-1","parameterCategory":2,"la1":30.2991,"la2":30.254,"lo1":-89.0895,"lo2":-89.0444,"dy":0.0017,"dx":0.0017,"nx":28,"ny":28,"refTime":"2025-01-31T09:00:00:Z","depth":"0","parameterNumber":2,"parameterNumberName":"U-component_of_CURRENTS"},"data":[0,0,0,0,0,0,0,0,0,0,0,0,0,0,0,0,0,0,0,0,0,0,0,0,0,0,0,0,0,0,0,0,0,0,0,0,0,0,0,0,0,0,0,0,0,0,0,0,0,0,0,0,0,0,0,0,0,0,0.2945,0.2946,0,0.2975,0.2976,0.2976,0.2962,0.2962,0.2961,0.2961,0.295,0.295,0.295,0,0,0,0,0,0,0,0,0,0,0,0,0,0.2884,0.2885,0.2945,0.2946,0.2946,0.2975,0.2976,0.2976,0.2962,0.2962,0.2961,0.2961,0.295,0.295,0.295,0,0,0,0,0,0,0,0,0,0,0,0,0,0.291,0.2886,0.2945,0.2945,0.2946,0.2975,0.2976,0.2976,0.2962,0.2962,0.2961,0.296,0.295,0.295,0.295,0.2967,0,0,0.2951,0.2951,0,0,0,0,0,0,0,0,0.2908,0.2912,0.2945,0.2945,0.2946,0.2967,0.295,0.2972,0.2963,0.2953,0.2961,0.296,0.2954,0.2954,0.2958,0.2967,0.2966,0.2951,0.2951,0.2951,0.2952,0,0,0,0,0,0,0,0.2907,0.291,0.2955,0.2945,0.2946,0.2947,0.2949,0.2954,0.2955,0.2954,0.2954,0.2962,0.2954,0.2958,0.2958,0.2966,0.2951,0.2951,0.2952,0.2952,0.3017,0.3019,0,0,0,0,0,0,0.2909,0.2909,0.2954,0.2956,0.2928,0.2949,0.2951,0.2959,0.2956,0.2956,0.2962,0.2961,0.2958,0.2957,0.2957,0.2998,0.2951,0.2952,0.2952,0.3015,0.3017,0.3019,0,0,0,0,0,0,0.2907,0.2912,0.2952,0.2935,0.294,0.2951,0.2959,0.296,0.2968,0.2963,0.2961,0.2971,0.2957,0.2957,0.2972,0.2996,0.2952,0.2952,0.3014,0.3016,0.3018,0.3065,0,0,0,0,0,0,0.2905,0.2912,0.2918,0.2935,0.2942,0.2976,0.296,0.2961,0.2975,0.2974,0.297,0.2968,0.2957,0.2972,0.2973,0.2996,0.2952,0.3012,0.3015,0.3017,0.3062,0.3069,0.3075,0,0,0,0,0,0.2903,0.2913,0.2918,0.2923,0.2949,0.2977,0.298,0.2983,0.2977,0.2986,0.2986,0.2968,0.2991,0.2974,0.2974,0.2998,0.301,0.3014,0.3017,0.3059,0.3068,0.3075,0,0,0,0,0,0,0.2886,0.2914,0.2919,0.2936,0.2958,0.2975,0.2986,0.299,0.2999,0.2997,0.2985,0.2984,0.3011,0.3,0.2981,0.3027,0.2999,0.3003,0.3031,0.3039,0.3046,0.3048,0.2953,0,0,0,0,0,0.2888,0.2904,0.2931,0.2945,0.2959,0.2975,0.2986,0.2993,0.3004,0.3007,0.3006,0.301,0.3027,0.3028,0.3039,0.3059,0.307,0.3077,0.3083,0.3089,0.3093,0.314,0.3152,0.3031,0.3031,0.3031,0,0,0.2884,0.2904,0.2911,0.2944,0.296,0.2985,0.2979,0.3004,0.3024,0.3005,0.3027,0.3036,0.3041,0.3068,0.3078,0.3058,0.3132,0.3093,0.3098,0.3099,0.3145,0.3157,0.3168,0.3033,0.3033,0.3032,0,0,0.2888,0.2906,0.2921,0.2945,0.2979,0.2995,0.3006,0.3031,0.3042,0.3068,0.3068,0.3091,0.3103,0.3117,0.3124,0.3175,0.3172,0.318,0.3207,0.3253,0.3264,0.3273,0.3309,0.3321,0.3175,0.3176,0.3176,0,0.2882,0.2906,0.293,0.2955,0.2977,0.3002,0.3027,0.3048,0.3074,0.3092,0.3079,0.3131,0.3129,0.3176,0.3191,0.319,0.3213,0.3173,0.3262,0.3271,0.328,0.3315,0.3327,0.3178,0.3178,0.3178,0.3177,0,0.2898,0.292,0.2935,0.2975,0.3004,0.3031,0.3069,0.3096,0.3112,0.3133,0.3184,0.3193,0.3221,0.323,0.3221,0.3287,0.3284,0.3271,0.3239,0.3295,0.3328,0.3341,0.3182,0.3181,0.318,0.318,0,0,0.287,0.2933,0.2936,0.2956,0.3017,0.3037,0.3089,0.3139,0.3177,0.3203,0.3253,0.3282,0.3293,0.3303,0.3308,0.3341,0.3417,0.3329,0.333,0.3361,0.3523,0.3511,0.3523,0.3423,0.3425,0.3427,0.3524,0,0.2873,0.2912,0.2951,0.2991,0.3015,0.3067,0.3109,0.3161,0.3211,0.3267,0.3298,0.3347,0.3321,0.3345,0.3376,0.3417,0.3451,0.3392,0.3468,0.347,0.3449,0.3537,0.3455,0.3535,0.3536,0.3538,0.3539,0,0.2869,0.2899,0.2934,0.2997,0.3013,0.3042,0.3125,0.3171,0.3266,0.3312,0.3375,0.3406,0.347,0.3437,0.3526,0.3492,0.351,0.353,0.3534,0.3514,0.3482,0.3479,0.3557,0.3496,0.3558,0.3557,0.3555,0,0.2821,0.2883,0.2908,0.2929,0.3006,0.3033,0.3079,0.3174,0.3235,0.3351,0.3409,0.3486,0.3537,0.3578,0.3616,0.3581,0.3717,0.367,0.3676,0.3675,0.3615,0.3605,0.3637,0.3733,0.3733,0.3733,0.3733,0,0.2801,0.2817,0.2881,0.2892,0.293,0.2997,0.306,0.3133,0.3253,0.3327,0.342,0.3497,0.3576,0.3655,0.3666,0.3727,0.3759,0.3706,0.3712,0.363,0.362,0.357,0.3521,0.3736,0.3736,0.3735,0.3734,0,0.2739,0.2782,0.2809,0.288,0.2905,0.2929,0.3043,0.3091,0.322,0.3329,0.337,0.3535,0.3644,0.3717,0.3811,0.3796,0.3758,0.3853,0.3752,0.3743,0.3661,0.3617,0.3491,0.3387,0.3872,0.3872,0.3873,0,0.2709,0.2716,0.2783,0.2794,0.2823,0.2877,0.2914,0.3056,0.3126,0.3336,0.3379,0.3547,0.3654,0.3817,0.3848,0.3908,0.3777,0.3842,0.3751,0.3672,0.3628,0.3446,0.3354,0.3692,0.3691,0.369,0.369,0,0.265,0.267,0.2693,0.2725,0.2753,0.2795,0.2867,0.2925,0.3088,0.3194,0.3349,0.3466,0.3671,0.3734,0.3845,0.3855,0.3677,0.3823,0.3774,0.3526,0.3299,0.3196,0.3607,0.3682,0.3682,0.3683,0.3683,0.3684,0.2597,0.2595,0.2624,0.2642,0.2672,0.2689,0.2691,0.279,0.2887,0.3024,0.3215,0.3355,0.3583,0.3743,0.373,0.3703,0.3617,0.362,0.3587,0.342,0.327,0.3665,0.3722,0.3723,0.3724,0.3725,0.3725,0,0.2526,0.2528,0.2539,0.255,0.2533,0.2586,0.2635,0.2624,0.2676,0.2869,0.3001,0.3242,0.3369,0.3514,0.3604,0.3502,0.3306,0.3418,0.3154,0.3084,0.3492,0.3438,0.3398,0.3398,0.3398,0.3398,0.3398,0.3398,0.2489,0.2464,0.2464,0.2405,0.2403,0.2349,0.2343,0.2359,0.2463,0.2592,0.274,0.2911,0.3262,0.3473,0.3446,0.3358,0.3087,0.2964,0.2912,0.3242,0.3258,0.3272,0.3212,0.3125,0.3125,0.2391,0.2385,0.2381]},{"header":{"parameterUnit":"m.s-1","parameterCategory":2,"la1":30.2991,"la2":30.254,"lo1":-89.0895,"lo2":-89.0444,"dy":0.0017,"dx":0.0017,"nx":28,"ny":28,"refTime":"2025-01-31T09:00:00:Z","depth":"0","parameterNumber":3,"parameterNumberName":"V-component_of_CURRENTS"},"data":[0,0,0,0,0,0,0,0,0,0,0,0,0,0,0,0,0,0,0,0,0,0,0,0,0,0,0,0,0,0,0,0,0,0,0,0,0,0,0,0,0,0,0,0,0,0,0,0,0,0,0,0,0,0,0,0,0,0,0.0284,0.0283,0,0.0213,0.0212,0.0212,0.016,0.016,0.016,0.016,0.0057,0.0054,0.0052,0,0,0,0,0,0,0,0,0,0,0,0,0,0.0313,0.0313,0.0284,0.0283,0.0282,0.0214,0.0212,0.0211,0.016,0.016,0.016,0.0159,0.0057,0.0054,0.0051,0,0,0,0,0,0,0,0,0,0,0,0,0,0.0275,0.0313,0.0284,0.025,0.0247,0.0214,0.0212,0.0211,0.016,0.016,0.016,0.0159,0.0058,0.0055,0.0051,0.0034,0,0,0.0039,0.0038,0,0,0,0,0,0,0,0,0.0278,0.0274,0.0256,0.0253,0.0249,0.0197,0.0185,0.0151,0.016,0.0191,0.016,0.0159,0.0102,0.0095,0.0079,0.0029,0.0024,0.0039,0.0037,0.0035,0.0034,0,0,0,0,0,0,0,0.028,0.0276,0.0253,0.0255,0.0251,0.0219,0.0213,0.0178,0.0147,0.0188,0.0185,0.0181,0.01,0.0083,0.0077,0.0023,0.0039,0.0036,0.0033,0.0032,-0.0042,-0.0041,0,0,0,0,0,0,0.0298,0.0279,0.0256,0.0251,0.0265,0.0219,0.0212,0.0212,0.0148,0.0138,0.0181,0.0179,0.009,0.0081,0.0073,0.0067,0.0035,0.0031,0.0029,-0.0042,-0.0042,-0.0041,0,0,0,0,0,0,0.0299,0.0296,0.0258,0.0265,0.0259,0.0219,0.0219,0.0211,0.0198,0.0143,0.0133,0.0177,0.0089,0.0078,0.0051,0.0062,0.003,0.0026,-0.0042,-0.0042,-0.0041,0.0043,0,0,0,0,0,0,0.03,0.0297,0.0302,0.0267,0.0259,0.0249,0.0219,0.021,0.0197,0.0193,0.0136,0.0126,0.0088,0.0057,0.0047,0.0056,0.0023,-0.0043,-0.0042,-0.0042,0.0039,0.0046,0.0052,0,0,0,0,0,0.0301,0.0316,0.0303,0.03,0.0267,0.025,0.0243,0.0211,0.0198,0.0197,0.016,0.0128,0.0054,0.0054,0.0043,0.005,-0.0043,-0.0042,-0.0042,0.0037,0.0045,0.0051,0,0,0,0,0,0,0.0331,0.0311,0.0296,0.0303,0.0282,0.0242,0.0241,0.0219,0.0189,0.0187,0.0132,0.012,0.0099,0.0063,0.0065,0.003,-0.0,-0.0002,0.0063,0.007,0.0076,0.0096,0.002,0,0,0,0,0,0.034,0.0346,0.0317,0.0323,0.0316,0.0279,0.0268,0.025,0.022,0.0206,0.0167,0.0126,0.0092,0.0074,0.0038,0.002,-0.0017,0.0016,0.0022,0.0028,0.0036,-0.001,-0.0007,-0.0039,-0.0039,-0.0039,0,0,0.0353,0.0343,0.0345,0.0329,0.0309,0.0313,0.0272,0.0265,0.0266,0.02,0.0189,0.0146,0.0092,0.0073,0.006,0.0045,0.0018,0.0029,0.0034,0.0039,-0.0009,-0.0006,-0.0003,-0.0038,-0.0038,-0.0038,0,0,0.0388,0.0373,0.0391,0.038,0.0363,0.0342,0.0345,0.0313,0.0296,0.0279,0.0234,0.0201,0.0148,0.0114,0.0088,0.0105,0.0051,0.0092,0.0138,0.0095,0.0097,0.0099,0.006,0.0058,0.0095,0.0095,0.0096,0,0.0403,0.0422,0.0392,0.0407,0.0408,0.0362,0.0384,0.036,0.0323,0.0316,0.0289,0.0216,0.0168,0.0144,0.0148,0.012,0.0087,0.0118,0.0104,0.0104,0.0105,0.0065,0.0061,0.01,0.0099,0.0099,0.0098,0,0.0451,0.0465,0.0476,0.048,0.0476,0.0487,0.0457,0.0447,0.042,0.0395,0.0364,0.0296,0.0254,0.023,0.0191,0.0173,0.0147,0.0118,0.009,0.0113,0.0069,0.0064,0.0105,0.0104,0.0103,0.0102,0,0,0.049,0.0507,0.0511,0.0532,0.052,0.0526,0.0527,0.0518,0.053,0.0473,0.0475,0.0401,0.0362,0.0331,0.0274,0.0231,0.0199,0.0182,0.0177,0.0152,0.0106,0.0106,0.01,0.0168,0.0167,0.0167,0.0077,0,0.0536,0.0588,0.058,0.0629,0.0655,0.0622,0.0626,0.0611,0.0589,0.0578,0.0497,0.0476,0.0401,0.0386,0.0329,0.0237,0.0188,0.0227,0.0079,0.0075,0.0079,0.0095,0.0126,0.0051,0.0071,0.007,0.0069,0,0.0587,0.0618,0.0675,0.0711,0.0719,0.0734,0.0749,0.0752,0.0716,0.0701,0.066,0.0597,0.0528,0.0458,0.031,0.0339,0.0232,0.015,0.0144,0.0112,0.0066,0.0028,0.0039,-0.0104,0.006,0.0061,0.0062,0,0.0635,0.0687,0.0739,0.0751,0.0775,0.0791,0.08,0.0787,0.0814,0.0785,0.0798,0.0696,0.0658,0.0511,0.0343,0.0325,0.0177,0.0129,0.0024,0.0022,0.0005,0.0003,-0.0132,0.0018,0.0018,0.0018,0.0018,0,0.0691,0.0734,0.0768,0.0796,0.0862,0.0851,0.0916,0.0909,0.0921,0.0967,0.0868,0.0883,0.0669,0.0557,0.0383,0.0202,0.0205,0.0038,0.0002,0.0035,0.0038,-0.0125,-0.0234,0.0015,0.0015,0.0016,0.0017,0,0.0735,0.0753,0.0823,0.0867,0.0888,0.0934,0.1007,0.1054,0.105,0.1107,0.1104,0.1024,0.0887,0.0668,0.0438,0.0274,-0.0007,0.0016,0.0075,0.0048,-0.0183,-0.0288,-0.0482,-0.0569,-0.0115,-0.0116,-0.0116,0,0.0763,0.0802,0.0883,0.0934,0.0959,0.1032,0.1085,0.1116,0.1185,0.1204,0.1243,0.1133,0.1091,0.0765,0.0454,0.0158,-0.002,-0.0019,-0.0054,-0.0183,-0.0329,-0.0396,-0.046,-0.005,-0.005,-0.005,-0.005,0,0.082,0.0843,0.09,0.1008,0.1081,0.118,0.1265,0.1343,0.138,0.1437,0.1488,0.1455,0.115,0.0889,0.0483,0.026,-0.0121,-0.0025,-0.0182,-0.0303,-0.0366,-0.0468,-0.0004,-0.0049,-0.0049,-0.0049,-0.0049,-0.0049,0.0859,0.0912,0.0987,0.1092,0.1183,0.1309,0.1407,0.1513,0.1638,0.1734,0.169,0.1704,0.1304,0.077,0.0442,-0.0093,-0.0138,-0.0251,-0.0372,-0.043,-0.0501,-0.0025,-0.0094,-0.0095,-0.0095,-0.0095,-0.0095,0,0.091,0.0973,0.107,0.1195,0.1306,0.1348,0.1515,0.1625,0.1789,0.1902,0.196,0.1824,0.1319,0.0793,0.0064,-0.0335,-0.0505,-0.057,-0.0667,-0.0722,-0.031,-0.0291,-0.0377,-0.0377,-0.0377,-0.0376,-0.0376,-0.0376,0.0938,0.1033,0.1085,0.1272,0.1368,0.1531,0.1635,0.1803,0.1942,0.2121,0.2189,0.2207,0.1841,0.0462,-0.042,-0.0645,-0.0943,-0.1026,-0.1187,-0.0904,-0.0883,-0.0863,-0.0868,-0.1074,-0.1075,-0.1518,-0.1523,-0.1526]}],[{"header":{"parameterUnit":"m.s-1","parameterCategory":2,"la1":30.2991,"la2":30.254,"lo1":-89.0895,"lo2":-89.0444,"dy":0.0017,"dx":0.0017,"nx":28,"ny":28,"refTime":"2025-01-31T09:00:00:Z","depth":"2","parameterNumber":2,"parameterNumberName":"U-component_of_CURRENTS"},"data":[0,0,0,0,0,0,0,0,0,0,0,0,0,0,0,0,0,0,0,0,0,0,0,0,0,0,0,0,0,0,0,0,0,0,0,0,0,0,0,0,0,0,0,0,0,0,0,0,0,0,0,0,0,0,0,0,0,0,0.2787,0.2788,0,0.2819,0.282,0.282,0.2815,0.2815,0.2815,0.2814,0.2814,0.2815,0.2815,0,0,0,0,0,0,0,0,0,0,0,0,0,0.2727,0.2728,0.2787,0.2788,0.2789,0.2819,0.282,0.282,0.2815,0.2815,0.2815,0.2814,0.2814,0.2815,0.2815,0,0,0,0,0,0,0,0,0,0,0,0,0,0.2753,0.2729,0.2787,0.2792,0.2793,0.2819,0.282,0.282,0.2815,0.2815,0.2814,0.2814,0.2814,0.2815,0.2815,0.2826,0,0,0.2816,0.2816,0,0,0,0,0,0,0,0,0.2752,0.2755,0.2791,0.2792,0.2793,0.2815,0.2799,0.2821,0.2815,0.2804,0.2814,0.2814,0.2814,0.2814,0.2818,0.2826,0.2826,0.2816,0.2817,0.2817,0.2817,0,0,0,0,0,0,0,0.275,0.2754,0.2797,0.2791,0.2793,0.2794,0.2797,0.2803,0.2808,0.2805,0.2805,0.2813,0.2814,0.2818,0.2818,0.2826,0.2816,0.2817,0.2817,0.2817,0.2885,0.2886,0,0,0,0,0,0,0.2752,0.2752,0.2796,0.2799,0.2774,0.2796,0.2799,0.2806,0.2809,0.281,0.2814,0.2813,0.2817,0.2817,0.2818,0.2863,0.2817,0.2817,0.2817,0.2883,0.2885,0.2887,0,0,0,0,0,0,0.275,0.2755,0.2795,0.2778,0.2784,0.2798,0.2806,0.2807,0.282,0.2816,0.2816,0.2827,0.2817,0.2817,0.2836,0.2862,0.2817,0.2818,0.2881,0.2884,0.2886,0.2934,0,0,0,0,0,0,0.2748,0.2755,0.2762,0.2778,0.2785,0.2818,0.2807,0.2808,0.2827,0.2826,0.2827,0.2826,0.2816,0.2836,0.2837,0.2862,0.2818,0.2879,0.2882,0.2885,0.293,0.2938,0.2944,0,0,0,0,0,0.2746,0.2756,0.2762,0.2768,0.2794,0.2819,0.2823,0.2829,0.2828,0.2838,0.2842,0.2827,0.2855,0.2837,0.2838,0.2864,0.2878,0.2882,0.2885,0.2927,0.2936,0.2944,0,0,0,0,0,0,0.2731,0.2758,0.2764,0.2781,0.2804,0.282,0.2832,0.2839,0.2851,0.2852,0.2843,0.2843,0.2874,0.2864,0.2845,0.2894,0.2866,0.2869,0.2898,0.2906,0.2913,0.2914,0.2818,0,0,0,0,0,0.2734,0.275,0.2775,0.279,0.2804,0.2822,0.2834,0.2842,0.2855,0.286,0.2862,0.287,0.2888,0.2892,0.2904,0.2925,0.2934,0.2944,0.2951,0.2957,0.296,0.3005,0.3016,0.2898,0.2898,0.2898,0,0,0.2731,0.275,0.2758,0.2789,0.2806,0.283,0.2827,0.2854,0.2874,0.2859,0.2885,0.2896,0.2902,0.2931,0.2943,0.2924,0.2997,0.2961,0.2966,0.2966,0.3009,0.3021,0.3031,0.2901,0.29,0.29,0,0,0.2735,0.2755,0.277,0.2793,0.2828,0.2843,0.2855,0.2881,0.2895,0.2924,0.2926,0.2952,0.2967,0.2981,0.2988,0.304,0.3036,0.3046,0.3074,0.3118,0.3128,0.3136,0.3169,0.3181,0.3043,0.3043,0.3043,0,0.2731,0.2754,0.2779,0.2803,0.2826,0.2852,0.2876,0.2898,0.2927,0.2946,0.2937,0.2992,0.2992,0.3039,0.3055,0.3055,0.3076,0.3041,0.3126,0.3135,0.3143,0.3175,0.3187,0.3046,0.3046,0.3045,0.3045,0,0.2746,0.277,0.2784,0.2824,0.2853,0.288,0.2918,0.2945,0.2966,0.2987,0.3042,0.3054,0.3084,0.3095,0.3087,0.3151,0.3147,0.3134,0.3103,0.3158,0.3188,0.3199,0.305,0.3049,0.3048,0.3047,0,0,0.2721,0.2782,0.2786,0.2806,0.2868,0.2887,0.2939,0.2988,0.3025,0.3056,0.3108,0.314,0.3154,0.3165,0.3172,0.3203,0.3277,0.3193,0.3194,0.3222,0.3375,0.3351,0.3361,0.3283,0.3285,0.3286,0.3375,0,0.2725,0.2763,0.2801,0.2842,0.2866,0.2917,0.2959,0.301,0.3061,0.3117,0.3151,0.3202,0.3181,0.3208,0.3238,0.3275,0.3308,0.3254,0.3321,0.3323,0.3292,0.3374,0.3112,0.3168,0.3386,0.3388,0.3389,0,0.2721,0.275,0.2787,0.2849,0.2866,0.2896,0.2978,0.3023,0.3114,0.3162,0.3226,0.3259,0.3324,0.3295,0.338,0.3349,0.3366,0.3384,0.3387,0.3355,0.3321,0.3148,0.318,0.3408,0.3406,0.3405,0.3404,0,0.2676,0.2738,0.2765,0.2786,0.2861,0.289,0.2935,0.3028,0.3088,0.3201,0.326,0.3336,0.3389,0.3427,0.3464,0.3432,0.3556,0.3514,0.3507,0.3505,0.3289,0.3265,0.3573,0.3573,0.3573,0.3572,0.3572,0,0.2658,0.2677,0.2741,0.2753,0.2793,0.2858,0.2922,0.2993,0.311,0.318,0.3274,0.3348,0.3426,0.35,0.3509,0.3558,0.3595,0.3535,0.3537,0.33,0.3277,0.3482,0.3471,0.3576,0.3575,0.3574,0.3574,0,0.26,0.2644,0.2673,0.2744,0.277,0.2796,0.291,0.2955,0.3082,0.3187,0.3228,0.3386,0.3486,0.3556,0.3642,0.3622,0.3665,0.3666,0.3386,0.3354,0.3568,0.3558,0.3667,0.3668,0.3668,0.3668,0.3668,0,0.2573,0.258,0.265,0.2663,0.2694,0.2751,0.2787,0.2925,0.2991,0.3192,0.3232,0.3392,0.3482,0.3626,0.363,0.3674,0.3701,0.3442,0.3332,0.3592,0.3584,0.3573,0.3563,0.306,0.3055,0.3051,0.3048,0,0.2516,0.254,0.2562,0.2598,0.2629,0.267,0.2742,0.2796,0.2951,0.305,0.3193,0.3294,0.346,0.3413,0.3498,0.347,0.3416,0.3365,0.3718,0.3089,0.303,0.3019,0.3026,0.3012,0.3016,0.3018,0.302,0.3022,0.2467,0.2466,0.2496,0.2518,0.2551,0.2567,0.2569,0.266,0.2747,0.2861,0.3036,0.31,0.3195,0.3203,0.3129,0.3072,0.3299,0.3137,0.3144,0.3157,0.3084,0.3029,0.2997,0.3,0.3003,0.3006,0.3008,0,0.2398,0.2403,0.2416,0.2429,0.2412,0.2471,0.2514,0.2492,0.2531,0.2673,0.2777,0.2635,0.2656,0.273,0.2613,0.2648,0.256,0.2521,0.2372,0.2414,0.245,0.2333,0.205,0.2046,0.2043,0.2039,0,0,0.2362,0.2338,0.2338,0.2283,0.2287,0.2235,0.223,0.2224,0.2286,0.229,0.2315,0.2541,0.2684,0.2321,0.2304,0.2153,0.2245,0.2066,0.2851,0.272,0.2749,0.2844,0.2719,0,0,0,0,0]},{"header":{"parameterUnit":"m.s-1","parameterCategory":2,"la1":30.2991,"la2":30.254,"lo1":-89.0895,"lo2":-89.0444,"dy":0.0017,"dx":0.0017,"nx":28,"ny":28,"refTime":"2025-01-31T09:00:00:Z","depth":"2","parameterNumber":3,"parameterNumberName":"V-component_of_CURRENTS"},"data":[0,0,0,0,0,0,0,0,0,0,0,0,0,0,0,0,0,0,0,0,0,0,0,0,0,0,0,0,0,0,0,0,0,0,0,0,0,0,0,0,0,0,0,0,0,0,0,0,0,0,0,0,0,0,0,0,0,0,0.0172,0.0171,0,0.0106,0.0105,0.0104,0.0058,0.0058,0.0058,0.0058,-0.004,-0.0042,-0.0045,0,0,0,0,0,0,0,0,0,0,0,0,0,0.02,0.0199,0.0172,0.0171,0.0171,0.0106,0.0105,0.0104,0.0058,0.0058,0.0058,0.0058,-0.0039,-0.0042,-0.0045,0,0,0,0,0,0,0,0,0,0,0,0,0,0.0164,0.0199,0.0172,0.0142,0.0139,0.0107,0.0105,0.0104,0.0058,0.0058,0.0058,0.0057,-0.0038,-0.0042,-0.0045,-0.0064,0,0,-0.0056,-0.0058,0,0,0,0,0,0,0,0,0.0166,0.0163,0.0147,0.0144,0.014,0.0092,0.0079,0.0047,0.0058,0.0086,0.0058,0.0057,0.0003,-0.0004,-0.0019,-0.0068,-0.0072,-0.0057,-0.0059,-0.0061,-0.0062,0,0,0,0,0,0,0,0.0169,0.0165,0.0143,0.0146,0.0142,0.0112,0.0107,0.0073,0.0044,0.0084,0.0081,0.0077,0.0001,-0.0015,-0.0021,-0.0074,-0.0057,-0.006,-0.0062,-0.0064,-0.0135,-0.0135,0,0,0,0,0,0,0.0185,0.0168,0.0146,0.0142,0.0156,0.0112,0.0106,0.0106,0.0045,0.0037,0.0078,0.0075,-0.0009,-0.0017,-0.0025,-0.003,-0.0061,-0.0064,-0.0066,-0.0135,-0.0135,-0.0134,0,0,0,0,0,0,0.0186,0.0184,0.0148,0.0155,0.0149,0.0112,0.0112,0.0105,0.0094,0.0041,0.0032,0.0075,-0.0009,-0.002,-0.0046,-0.0035,-0.0066,-0.0069,-0.0136,-0.0135,-0.0135,-0.0053,0,0,0,0,0,0,0.0187,0.0185,0.019,0.0156,0.0149,0.014,0.0112,0.0104,0.0093,0.0089,0.0036,0.0026,-0.001,-0.004,-0.0049,-0.0041,-0.0072,-0.0136,-0.0135,-0.0135,-0.0056,-0.005,-0.0045,0,0,0,0,0,0.0188,0.0202,0.019,0.0188,0.0157,0.014,0.0134,0.0105,0.0093,0.0093,0.0059,0.0028,-0.0043,-0.0042,-0.0054,-0.0046,-0.0136,-0.0135,-0.0135,-0.0059,-0.0051,-0.0045,0,0,0,0,0,0,0.0216,0.0198,0.0184,0.0191,0.0171,0.0134,0.0133,0.0113,0.0085,0.0084,0.0032,0.002,0.0,-0.0034,-0.0032,-0.0065,-0.0095,-0.0096,-0.0033,-0.0027,-0.0021,-0.0002,-0.0075,0,0,0,0,0,0.0225,0.0231,0.0204,0.0209,0.0204,0.0169,0.0159,0.0142,0.0114,0.0101,0.0064,0.0026,-0.0007,-0.0024,-0.0059,-0.0076,-0.0112,-0.0079,-0.0073,-0.0068,-0.0061,-0.0105,-0.0102,-0.0132,-0.0132,-0.0132,0,0,0.0237,0.0228,0.023,0.0215,0.0197,0.0201,0.0162,0.0157,0.0158,0.0095,0.0086,0.0045,-0.0007,-0.0025,-0.0037,-0.0051,-0.0078,-0.0067,-0.0062,-0.0058,-0.0104,-0.0101,-0.0098,-0.0132,-0.0132,-0.0132,0,0,0.0269,0.0257,0.0274,0.0263,0.0248,0.0229,0.0232,0.0202,0.0186,0.0171,0.0127,0.0097,0.0047,0.0014,-0.001,0.0006,-0.0045,-0.0007,0.0038,-0.0004,-0.0002,-0.0001,-0.0036,-0.0038,-0.0003,-0.0003,-0.0003,0,0.0284,0.0302,0.0275,0.0289,0.029,0.0248,0.0269,0.0245,0.0211,0.0204,0.018,0.0111,0.0066,0.0042,0.0046,0.002,-0.0011,0.0018,0.0004,0.0005,0.0005,-0.0032,-0.0035,0.0001,0.0,0.0,-0.0,0,0.0328,0.0342,0.0353,0.0358,0.0354,0.0365,0.0337,0.0328,0.0304,0.0279,0.0251,0.0186,0.0148,0.0125,0.0089,0.0071,0.0047,0.0018,-0.0009,0.0013,-0.0027,-0.0032,0.0007,0.0005,0.0004,0.0003,0,0,0.0365,0.0382,0.0386,0.0407,0.0396,0.0402,0.0403,0.0394,0.0405,0.0353,0.0355,0.0286,0.025,0.022,0.0167,0.0125,0.0096,0.0079,0.0075,0.0052,0.0008,0.0001,-0.0006,0.0065,0.0065,0.0064,-0.0019,0,0.0409,0.0458,0.0451,0.0498,0.0523,0.0492,0.0496,0.0481,0.0462,0.045,0.0375,0.0355,0.0287,0.0273,0.0219,0.013,0.0085,0.0122,-0.0018,-0.0022,-0.0024,-0.0011,0.0008,-0.0064,-0.0024,-0.0025,-0.0026,0,0.0456,0.0485,0.0541,0.0575,0.0583,0.0598,0.0613,0.0615,0.0581,0.0567,0.0529,0.0469,0.0404,0.034,0.0199,0.0226,0.0127,0.0049,0.0043,0.0006,-0.0038,-0.0083,-0.0075,-0.0035,-0.0034,-0.0034,-0.0033,0,0.0503,0.0551,0.0602,0.0613,0.0637,0.0653,0.0662,0.0649,0.0674,0.0646,0.066,0.0562,0.0525,0.0388,0.0227,0.0213,0.0068,0.0026,-0.0076,-0.0078,-0.0105,-0.0108,-0.0077,-0.0077,-0.0077,-0.0077,-0.0077,0,0.0555,0.0597,0.063,0.0657,0.0721,0.0711,0.0773,0.0766,0.0776,0.0818,0.0727,0.0737,0.0535,0.0427,0.0263,0.0089,0.0094,-0.0063,-0.0098,-0.0076,-0.0075,-0.0087,-0.0087,-0.008,-0.0079,-0.0079,-0.0078,0,0.0598,0.0616,0.0682,0.0725,0.0746,0.079,0.086,0.0903,0.09,0.0952,0.095,0.0869,0.0735,0.0527,0.0308,0.0154,-0.0024,-0.0092,-0.0046,-0.0074,-0.0155,-0.015,-0.0214,-0.0215,-0.0216,-0.0217,-0.0217,0,0.0624,0.0662,0.074,0.0789,0.0814,0.0885,0.0935,0.0963,0.1027,0.1041,0.1076,0.0966,0.0916,0.06,0.0307,0.0027,-0.0017,-0.0144,-0.0174,-0.014,-0.0168,-0.0162,-0.0156,-0.0183,-0.0183,-0.0183,-0.0183,0,0.0678,0.0701,0.0756,0.086,0.093,0.1023,0.1103,0.1174,0.1207,0.1257,0.1295,0.1254,0.0957,0.0685,0.0301,0.0104,-0.0098,-0.0156,-0.0137,-0.0141,-0.0114,-0.014,-0.0135,-0.0185,-0.0184,-0.0184,-0.0184,-0.0184,0.0715,0.0765,0.0837,0.0938,0.1026,0.1142,0.1232,0.1326,0.1436,0.1509,0.1461,0.1412,0.108,0.0608,0.0263,-0.0103,-0.0091,-0.0227,-0.0225,-0.0223,-0.0195,-0.017,-0.0245,-0.0245,-0.0246,-0.0246,-0.0246,0,0.0761,0.0821,0.0914,0.1033,0.1137,0.1181,0.1333,0.1423,0.1564,0.1627,0.166,0.1355,0.1045,0.0668,0.0131,-0.0187,-0.0221,-0.0292,-0.0265,-0.0261,-0.0259,-0.0232,-0.0293,-0.0294,-0.0295,-0.0295,0,0,0.0785,0.0874,0.0923,0.1099,0.1194,0.1345,0.1441,0.157,0.1661,0.1729,0.1711,0.1637,0.1176,0.0783,0.0335,0.0027,-0.0041,-0.0038,0.0033,0.0121,0.0128,-0.0191,-0.0141,0,0,0,0,0]}],[{"header":{"parameterUnit":"m.s-1","parameterCategory":2,"la1":30.2991,"la2":30.254,"lo1":-89.0895,"lo2":-89.0444,"dy":0.0017,"dx":0.0017,"nx":28,"ny":28,"refTime":"2025-01-31T09:00:00:Z","depth":"4","parameterNumber":2,"parameterNumberName":"U-component_of_CURRENTS"},"data":[0,0,0,0,0,0,0,0,0,0,0,0,0,0,0,0,0,0,0,0,0,0,0,0,0,0,0,0,0,0,0,0,0,0,0,0,0,0,0,0,0,0,0,0,0,0,0,0,0,0,0,0,0,0,0,0,0,0,0.1879,0.188,0,0.1953,0.1954,0.1955,0.2014,0.2015,0.2016,0.2016,0.2102,0.2103,0.2105,0,0,0,0,0,0,0,0,0,0,0,0,0,0.1783,0.1784,0.1879,0.188,0.1881,0.1953,0.1954,0.1955,0.2014,0.2015,0.2016,0.2017,0.2101,0.2103,0.2105,0,0,0,0,0,0,0,0,0,0,0,0,0,0.1835,0.1784,0.1879,0.1921,0.1926,0.1953,0.1954,0.1955,0.2014,0.2015,0.2016,0.2017,0.2101,0.2103,0.2105,0.2096,0,0,0.2112,0.2113,0,0,0,0,0,0,0,0,0.1832,0.1839,0.1914,0.1918,0.1924,0.1978,0.1951,0.2003,0.2014,0.1978,0.2017,0.2018,0.2062,0.2067,0.2075,0.21,0.2103,0.2112,0.2114,0.2115,0.2115,0,0,0,0,0,0,0,0.1829,0.1836,0.1907,0.1915,0.1921,0.1934,0.1943,0.1961,0.2011,0.1981,0.1986,0.1997,0.2064,0.2073,0.2078,0.2105,0.2112,0.2114,0.2116,0.2117,0.2244,0.2246,0,0,0,0,0,0,0.1823,0.1832,0.1904,0.1909,0.1882,0.1935,0.1945,0.1957,0.2011,0.2021,0.1996,0.2,0.2069,0.2075,0.2081,0.2179,0.2115,0.2117,0.2118,0.2242,0.2245,0.2247,0,0,0,0,0,0,0.182,0.1828,0.1901,0.1874,0.1884,0.1936,0.1949,0.1958,0.2008,0.2022,0.2032,0.2042,0.207,0.2078,0.2136,0.2179,0.2118,0.212,0.224,0.2243,0.2246,0.2307,0,0,0,0,0,0,0.1817,0.1827,0.1853,0.1873,0.1886,0.1942,0.1949,0.1959,0.2011,0.2018,0.2064,0.2071,0.2071,0.2133,0.2139,0.2181,0.2122,0.2237,0.2241,0.2245,0.2303,0.2312,0.232,0,0,0,0,0,0.1813,0.1836,0.1853,0.1863,0.1913,0.1944,0.1952,0.199,0.2013,0.2039,0.2076,0.2071,0.2161,0.2137,0.2143,0.2187,0.2236,0.224,0.2245,0.2299,0.231,0.232,0,0,0,0,0,0,0.1807,0.1845,0.1864,0.1898,0.1932,0.1955,0.1989,0.2012,0.2061,0.2082,0.2094,0.2103,0.2172,0.2171,0.2144,0.2236,0.2199,0.2205,0.2238,0.2249,0.2257,0.2252,0.2124,0,0,0,0,0,0.1817,0.1848,0.1879,0.1912,0.1933,0.1969,0.1995,0.2022,0.2058,0.2083,0.2115,0.2152,0.2187,0.2213,0.224,0.2287,0.2287,0.2321,0.233,0.2337,0.2339,0.2379,0.2391,0.2262,0.2262,0.2262,0,0,0.1824,0.185,0.187,0.1915,0.1947,0.1979,0.1989,0.204,0.2078,0.2083,0.2158,0.2187,0.2208,0.2265,0.2295,0.2275,0.2376,0.2343,0.2349,0.2346,0.2385,0.2397,0.2408,0.2265,0.2264,0.2264,0,0,0.1839,0.188,0.1908,0.1939,0.1995,0.2016,0.2039,0.2087,0.2127,0.2189,0.2208,0.2263,0.2316,0.2339,0.2355,0.2427,0.2422,0.2446,0.2485,0.2525,0.2536,0.2545,0.2566,0.2576,0.2449,0.2449,0.2449,0,0.1851,0.1887,0.1922,0.1955,0.199,0.2036,0.2073,0.2112,0.2177,0.2213,0.2226,0.2327,0.2347,0.2411,0.244,0.2446,0.2463,0.2442,0.2535,0.2544,0.2553,0.2572,0.2583,0.2452,0.2452,0.2451,0.2451,0,0.1872,0.1918,0.194,0.1997,0.2038,0.2082,0.2134,0.2189,0.2244,0.2279,0.2372,0.2407,0.2464,0.2485,0.2486,0.2563,0.2555,0.2542,0.2505,0.2569,0.2586,0.2596,0.2457,0.2456,0.2455,0.2454,0,0,0.185,0.1938,0.195,0.1986,0.2069,0.2097,0.2174,0.2244,0.23,0.2373,0.2446,0.2514,0.2545,0.2565,0.2585,0.262,0.2696,0.2614,0.2614,0.2627,0.2783,0.262,0.2615,0.2706,0.2709,0.271,0.2771,0,0.1861,0.1922,0.1971,0.2041,0.2076,0.2149,0.221,0.2284,0.2358,0.2438,0.2497,0.2575,0.2572,0.2618,0.2655,0.2692,0.2726,0.268,0.2725,0.2725,0.2566,0.2622,0.2717,0.2778,0.2781,0.2782,0.2784,0,0.1857,0.1903,0.1971,0.2063,0.2088,0.2142,0.2254,0.2317,0.2431,0.2496,0.2584,0.2633,0.2717,0.2701,0.2789,0.2766,0.2781,0.2796,0.2799,0.2629,0.2581,0.2701,0.2802,0.28,0.2799,0.2798,0.2797,0,0.1804,0.19,0.1957,0.199,0.2099,0.2156,0.2223,0.2338,0.2409,0.2546,0.2613,0.2709,0.2778,0.2819,0.2858,0.2839,0.2938,0.2909,0.2774,0.2762,0.2863,0.2852,0.2963,0.2963,0.2962,0.2962,0.2962,0,0.1775,0.1824,0.1943,0.1971,0.2048,0.2136,0.2233,0.232,0.2453,0.2525,0.2643,0.2708,0.2816,0.288,0.2891,0.2862,0.2967,0.2784,0.2768,0.2888,0.288,0.287,0.2858,0.2965,0.2964,0.2964,0.2963,0,0.1702,0.1782,0.185,0.1977,0.2025,0.2081,0.2236,0.2292,0.2438,0.2542,0.2594,0.2744,0.2816,0.2893,0.2968,0.2889,0.2887,0.2851,0.2983,0.2973,0.2675,0.2666,0.269,0.2685,0.268,0.2677,0.2674,0,0.1664,0.1695,0.184,0.1883,0.1949,0.2051,0.2112,0.2272,0.2335,0.253,0.2559,0.27,0.2772,0.2746,0.284,0.285,0.282,0.2795,0.2716,0.2665,0.2649,0.2647,0.2644,0.2667,0.2666,0.2664,0.2663,0,0.159,0.166,0.1717,0.1809,0.1886,0.1956,0.2061,0.2096,0.2261,0.2415,0.2465,0.2508,0.2586,0.2636,0.2673,0.2673,0.2794,0.2748,0.2756,0.2681,0.2637,0.2625,0.2627,0.2648,0.265,0.2652,0.2652,0,0.154,0.1561,0.1648,0.1712,0.1801,0.1829,0.19,0.1964,0.205,0.2257,0.2267,0.2412,0.2554,0.2545,0.2577,0.2571,0.2524,0.2429,0.2453,0.2471,0.2371,0.2281,0.2171,0,0,0,0,0,0.1478,0.1487,0.1539,0.1598,0.1677,0.1729,0.1848,0.1919,0.2077,0.2054,0.2158,0.2216,0.2264,0.2349,0.2298,0.2484,0.2537,0.2413,0.2441,0.2563,0.2581,0.2484,0,0,0,0,0,0,0.1435,0.1483,0.1497,0.1487,0.1503,0.1572,0.1638,0.1743,0.1744,0.1913,0.1955,0.2084,0.2172,0.2271,0.2256,0.2281,0.2252,0.2513,0.2507,0.2553,0.2569,0.2583,0.249,0,0,0,0,0]},{"header":{"parameterUnit":"m.s-1","parameterCategory":2,"la1":30.2991,"la2":30.254,"lo1":-89.0895,"lo2":-89.0444,"dy":0.0017,"dx":0.0017,"nx":28,"ny":28,"refTime":"2025-01-31T09:00:00:Z","depth":"4","parameterNumber":3,"parameterNumberName":"V-component_of_CURRENTS"},"data":[0,0,0,0,0,0,0,0,0,0,0,0,0,0,0,0,0,0,0,0,0,0,0,0,0,0,0,0,0,0,0,0,0,0,0,0,0,0,0,0,0,0,0,0,0,0,0,0,0,0,0,0,0,0,0,0,0,0,0.0083,0.0083,0,0.004,0.0039,0.0039,0.0007,0.0006,0.0006,0.0006,-0.0069,-0.0071,-0.0073,0,0,0,0,0,0,0,0,0,0,0,0,0,0.0098,0.0098,0.0083,0.0083,0.0083,0.004,0.0039,0.0038,0.0007,0.0006,0.0006,0.0006,-0.0068,-0.0071,-0.0073,0,0,0,0,0,0,0,0,0,0,0,0,0,0.0075,0.0098,0.0083,0.0063,0.0061,0.004,0.0039,0.0038,0.0007,0.0006,0.0006,0.0006,-0.0068,-0.007,-0.0073,-0.0087,0,0,-0.0082,-0.0083,0,0,0,0,0,0,0,0,0.0077,0.0075,0.0066,0.0064,0.0062,0.003,0.0017,-0.0005,0.0007,0.0025,0.0006,0.0006,-0.0038,-0.0043,-0.0053,-0.0091,-0.0094,-0.0082,-0.0084,-0.0085,-0.0086,0,0,0,0,0,0,0,0.0079,0.0076,0.0064,0.0066,0.0063,0.0042,0.0039,0.0012,-0.0007,0.0024,0.0022,0.002,-0.0039,-0.005,-0.0055,-0.0095,-0.0082,-0.0085,-0.0086,-0.0087,-0.0144,-0.0144,0,0,0,0,0,0,0.009,0.0078,0.0066,0.0063,0.0071,0.0042,0.0038,0.0039,-0.0006,-0.0012,0.002,0.0018,-0.0045,-0.0051,-0.0058,-0.0061,-0.0085,-0.0088,-0.0089,-0.0144,-0.0144,-0.0144,0,0,0,0,0,0,0.009,0.0089,0.0068,0.0071,0.0067,0.0043,0.0043,0.0038,0.0031,-0.0008,-0.0015,0.0018,-0.0045,-0.0054,-0.0074,-0.0065,-0.0089,-0.0092,-0.0144,-0.0144,-0.0144,-0.0079,0,0,0,0,0,0,0.0091,0.009,0.0094,0.0072,0.0067,0.0063,0.0043,0.0038,0.0031,0.0028,-0.0012,-0.0019,-0.0046,-0.0069,-0.0076,-0.0069,-0.0094,-0.0145,-0.0144,-0.0144,-0.0081,-0.0076,-0.0072,0,0,0,0,0,0.0092,0.0102,0.0095,0.0093,0.0074,0.0063,0.0059,0.0039,0.0031,0.0031,0.0006,-0.0018,-0.0072,-0.0071,-0.008,-0.0073,-0.0145,-0.0144,-0.0144,-0.0083,-0.0077,-0.0072,0,0,0,0,0,0,0.0109,0.0099,0.0091,0.0097,0.0084,0.0059,0.0059,0.0045,0.0025,0.0024,-0.0015,-0.0024,-0.0039,-0.0066,-0.0064,-0.009,-0.0113,-0.0114,-0.0064,-0.0058,-0.0054,-0.0039,-0.0096,0,0,0,0,0,0.0116,0.0122,0.0105,0.011,0.0106,0.0083,0.0077,0.0066,0.0046,0.0037,0.0009,-0.002,-0.0045,-0.0058,-0.0085,-0.0098,-0.0127,-0.0101,-0.0096,-0.0092,-0.0086,-0.0124,-0.0122,-0.0142,-0.0142,-0.0142,0,0,0.0125,0.012,0.0123,0.0114,0.0103,0.0107,0.0079,0.0077,0.0079,0.0031,0.0026,-0.0005,-0.0045,-0.0059,-0.0068,-0.0079,-0.0101,-0.0091,-0.0087,-0.0084,-0.0123,-0.0121,-0.0119,-0.0142,-0.0142,-0.0142,0,0,0.0147,0.0141,0.0154,0.0148,0.014,0.0127,0.013,0.011,0.01,0.009,0.0057,0.0034,-0.0004,-0.0029,-0.0047,-0.0035,-0.0076,-0.0045,-0.001,-0.0046,-0.0044,-0.0043,-0.0073,-0.0075,-0.0042,-0.0042,-0.0042,0,0.0158,0.0173,0.0155,0.0167,0.0171,0.0142,0.0159,0.0143,0.0119,0.0115,0.0098,0.0046,0.0011,-0.0007,-0.0003,-0.0024,-0.005,-0.0024,-0.0039,-0.0038,-0.0039,-0.0069,-0.0073,-0.0039,-0.0039,-0.004,-0.004,0,0.0189,0.0203,0.0211,0.0219,0.0219,0.0229,0.0211,0.0206,0.019,0.0174,0.0154,0.0104,0.0075,0.0057,0.003,0.0015,-0.0005,-0.0028,-0.0049,-0.0032,-0.0066,-0.007,-0.0034,-0.0035,-0.0036,-0.0037,0,0,0.0211,0.0231,0.0234,0.0253,0.025,0.0258,0.0261,0.0259,0.027,0.0231,0.0235,0.0183,0.0156,0.0133,0.0091,0.0057,0.0032,0.002,0.0016,-0.0002,-0.0043,-0.0051,-0.0057,0.0006,0.0006,0.0005,-0.0065,0,0.0242,0.0282,0.0282,0.0322,0.0343,0.0327,0.0333,0.0326,0.0314,0.0307,0.025,0.0237,0.0185,0.0175,0.0131,0.0058,0.0022,0.0053,-0.0063,-0.0066,-0.0069,-0.0062,0.0003,-0.0068,-0.0069,-0.007,-0.0071,0,0.0274,0.0299,0.0346,0.0381,0.0389,0.0406,0.0425,0.043,0.0408,0.0399,0.0372,0.0326,0.0274,0.0225,0.0109,0.0132,0.0053,-0.001,-0.0015,-0.0047,-0.0082,-0.0092,-0.0079,-0.0079,-0.0078,-0.0078,-0.0077,0,0.0301,0.0346,0.039,0.0401,0.043,0.0449,0.0461,0.0457,0.048,0.0462,0.0474,0.0397,0.0367,0.0257,0.0126,0.0119,-0.0007,-0.0036,-0.0118,-0.012,-0.0121,-0.0121,-0.0118,-0.0118,-0.0118,-0.0118,-0.0118,0,0.0333,0.037,0.041,0.0433,0.049,0.0491,0.0546,0.0546,0.0559,0.0592,0.0527,0.0529,0.0373,0.0281,0.0152,0.0009,0.0012,-0.0108,-0.0137,-0.0091,-0.0088,-0.0124,-0.0123,-0.0121,-0.012,-0.012,-0.0119,0,0.0354,0.0377,0.0435,0.0482,0.0506,0.0545,0.0614,0.0649,0.0655,0.0695,0.0695,0.0628,0.0509,0.0348,0.0167,0.0055,-0.009,-0.0144,-0.0072,-0.0097,-0.0186,-0.0182,-0.024,-0.024,-0.0241,-0.0242,-0.0242,0,0.0367,0.0398,0.0477,0.0521,0.0549,0.0615,0.066,0.0694,0.0742,0.0756,0.0776,0.0684,0.0612,0.0367,0.0185,-0.0058,-0.0101,-0.0178,-0.0196,-0.0176,-0.0199,-0.0193,-0.0188,-0.0243,-0.0243,-0.0244,-0.0244,0,0.0392,0.0421,0.0468,0.0561,0.0626,0.0707,0.0777,0.0821,0.0854,0.0866,0.0848,0.0719,0.0584,0.0379,0.019,0.0011,-0.013,-0.0187,-0.0187,-0.0204,-0.0181,-0.0202,-0.0196,-0.0246,-0.0246,-0.0246,-0.0246,0,0.041,0.0447,0.0511,0.0595,0.0683,0.0767,0.0807,0.0859,0.0902,0.0913,0.0903,0.0756,0.0671,0.0415,0.0242,0.0066,0.001,-0.006,-0.0068,-0.0068,-0.0006,0.0048,0.0034,0,0,0,0,0,0.0424,0.0467,0.0543,0.0634,0.0723,0.0779,0.0871,0.0903,0.0939,0.0936,0.0924,0.0798,0.0546,0.0446,0.0268,0.0208,-0.0034,-0.001,-0.0121,-0.026,-0.0257,-0.0216,0,0,0,0,0,0,0.043,0.0497,0.0538,0.0652,0.0721,0.0823,0.0884,0.0911,0.0917,0.0924,0.0803,0.0741,0.0506,0.0648,0.0262,0.0209,0.011,-0.0122,-0.0126,-0.0261,-0.0259,-0.0257,-0.0213,0,0,0,0,0]}]]